THORAD AGENA D DEB, 4682

Orbit data source: Space-Track

THORAD AGENA D DEB, 4682 is space debris in SSO originally from a launch on Wed, 08 Apr 1970 UTC launched from the Air Force Western Test Range (AFWTR). Debris objects in space refer to the collection of defunct objects orbiting the Earth. Examples of debris include non-operational satellites, rocket bodies, and fragments generated from explosions, collisions, or faulty payload assembly.

Loading next visibility...
Identifier
4682, 1970-025BF
Orbit
SSO
Country
Flag of USUS
Related business
Manufacturer
Unknown
Mission
Spacecraft
Bus & Motor
Unknown
Mass
Unknown
Launch date (UTC)
1970-04-08 (56 years ago)
Launch vehicle
Unknown
Launch site
Air Force Western Test Range (AFWTR)
Object type
Payload
Rocket body
Debris
Shape & HBR
Unknown shape, 0.2 m
Radar Cross Section
Medium (>0.1 m² and <1 m²)

Expand to show TLE details & history
Last TLE update: 14 hours ago

TLE from 14 hours ago
0 THORAD AGENA D DEB
1 04682U 70025BF  25287.18240470  .00000263  00000-0  66995-3 0  9993
2 04682  99.7542 309.7374 0143588  19.7361  39.2135 13.24379257675528
Epoch: 2025-10-14T04:22Z
TLE epoch observation values (Epoch: 2025-10-14T04:22:39.766Z)
Latitude
58.69467°
Longitude
-155.23615°
Altitude
1,094.53 km
Speed
7.351 km/s
True Right ascension
19h 33m 36s
True Declination
58° 32' 55"
Sunlit
Object was in daylight at epoch
Visualization orbit readout
Latitude
Unknown
Longitude
Unknown
Altitude
Unknown
Speed
Unknown
Apparent Right ascension
Unknown
Apparent Declination
Unknown
Sunlit
N/A
Visualization observer readout
Local Sidereal Time
12:57:03
Azimuth
Unknown
Elevation
Unknown
Doppler factor
Unknown
Orbital elements
Apogee altitude
1,273.692 km
Perigee altitude
1,057.061 km
Semi-major axis
7,543.514 km
Eccentricity
0.01436
Inclination
99.7542°
RAAN
309.7374°
Arg. of periapsis
19.7361°
True anomaly
40.26834°
Mean anomaly
39.2135°
Eccentric anomaly
39.73945°
Mean motion
3.3127 °/min
Orbital period
108.67 mins
BSTAR
0.00066995

Documentation

Showing up to 5 results
|